DW3201 Weather Reports


time (UTC)temp
F
wind
direction
speed
knots
gust
knots
rain 1hr
in
rain 24hr
in
rain mn
in
humidity
%
barometer
mb
20260510111554 35 255 0.0 0.0 0.00 0.00 0.00 91 1016.4
20260510110101 34 0 0.0 0.0 0.00 0.00 0.00 91 1016.1
20260510104614 34 0 0.0 0.0 0.00 0.00 0.00 91 1016.0
20260510103055 35 0 0.0 0.0 0.00 0.00 0.00 90 1015.8
20260510101553 35 0 0.0 0.0 0.00 0.00 0.00 90 1015.7
20260510100058 36 0 0.0 0.0 0.00 0.00 0.00 90 1015.5
20260510094600 36 0 0.0 0.0 0.00 0.00 0.00 88 1015.3
20260510093059 36 0 0.0 0.0 0.00 0.00 0.00 88 1015.3
20260510091554 36 0 0.0 0.0 0.00 0.00 0.00 87 1015.2
20260510090056 36 0 0.0 0.0 0.00 0.00 0.00 86 1015.0
20260510084559 37 0 0.0 0.0 0.00 0.00 0.00 87 1014.7
20260510083101 37 0 0.0 0.0 0.00 0.00 0.00 85 1014.5
20260510081554 38 0 0.0 0.0 0.00 0.00 0.00 83 1014.4
20260510080052 39 0 0.0 0.0 0.00 0.00 0.00 83 1014.1
20260510074618 40 0 0.0 0.0 0.00 0.00 0.00 82 1013.8
20260510073058 40 0 0.0 0.0 0.00 0.00 0.00 81 1013.6
20260510071601 41 0 0.0 0.0 0.00 0.00 0.00 79 1013.5
20260510070057 41 0 0.0 0.0 0.00 0.00 0.00 76 1013.4
20260510064609 42 0 0.0 0.9 0.00 0.00 0.00 70 1013.3
20260510063100 43 0 0.0 0.9 0.00 0.00 0.00 66 1013.2
20260510061554 44 0 0.0 0.9 0.00 0.00 0.00 64 1013.2
20260510060058 45 0 0.0 0.9 0.00 0.00 0.00 61 1013.0
20260510054554 46 65 0.0 2.6 0.00 0.00 0.00 60 1012.8
20260510053054 46 34 1.7 6.1 0.00 0.00 0.00 59 1012.8
20260510051602 47 58 3.5 10.4 0.00 0.00 0.00 56 1012.5
20260510050055 49 36 4.3 7.8 0.00 0.00 0.00 51 1012.3
20260510044556 50 82 4.3 8.7 0.00 0.00 0.00 49 1011.7
20260510043101 50 0 0.0 0.9 0.00 0.00 0.00 47 1011.2
20260510041609 50 210 0.0 1.7 0.00 0.00 0.00 46 1011.0
20260510040054 49 177 0.0 0.9 0.00 0.00 0.00 51 1010.8
20260510034559 50 0 0.0 1.7 0.00 0.00 0.00 49 1010.6
20260510033103 51 0 0.0 0.9 0.00 0.00 0.00 49 1010.3
20260510031602 52 0 0.0 0.9 0.00 0.00 0.00 46 1010.2
20260510030105 53 0 0.0 1.7 0.00 0.00 0.00 44 1010.0
20260510024603 53 233 0.0 0.9 0.00 0.00 0.00 44 1009.8
20260510023053 53 249 0.0 3.5 0.00 0.00 0.00 46 1009.5
20260510021553 53 0 0.0 1.7 0.00 0.00 0.00 51 1009.3
20260510020054 53 0 0.0 0.9 0.00 0.00 0.00 53 1008.9
20260510014554 55 0 0.0 0.0 0.00 0.00 0.00 52 1008.5
20260510013105 56 0 0.0 0.9 0.00 0.00 0.00 46 1008.2
20260510011553 57 0 0.0 0.9 0.00 0.00 0.00 43 1007.8
20260510010105 59 0 0.0 0.9 0.00 0.00 0.00 40 1007.4
20260510004600 60 0 0.0 4.3 0.00 0.00 0.00 38 1007.2
20260510003056 61 0 0.0 3.5 0.00 0.00 0.00 37 1006.9
20260510001552 62 226 2.6 7.0 0.00 0.00 0.00 36 1006.6
20260510000108 63 170 0.9 7.0 0.00 0.00 0.00 36 1006.3
20260509234604 63 0 0.9 6.1 0.00 0.00 0.00 37 1006.1
20260509233053 64 295 1.7 6.1 0.00 0.00 0.00 36 1006.1
20260509231557 65 48 1.7 5.2 0.00 0.00 0.00 36 1005.9
20260509230053 65 275 0.9 7.8 0.00 0.00 0.00 36 1005.7
20260509224554 65 302 0.9 4.3 0.00 0.00 0.00 35 1005.5
20260509223051 66 271 0.9 8.7 0.00 0.00 0.00 35 1005.4
20260509221608 66 347 3.5 7.8 0.00 0.00 0.00 33 1005.0
20260509214551 66 273 1.7 9.6 0.00 0.00 0.00 34 1004.6
20260509213053 67 310 2.6 8.7 0.00 0.00 0.00 35 1004.3
20260509211554 67 348 2.6 9.6 0.00 0.00 0.00 35 1004.0
20260509210059 67 39 3.5 9.6 0.00 0.00 0.00 36 1004.1
20260509204559 67 292 0.9 9.6 0.00 0.00 0.00 37 1003.8
20260509203055 68 257 3.5 8.7 0.00 0.00 0.00 37 1003.5
20260509201558 69 291 4.3 10.4 0.00 0.00 0.00 35 1003.5
20260509200105 68 302 2.6 8.7 0.00 0.00 0.00 35 1003.2
20260509194556 69 276 8.7 16.5 0.00 0.00 0.00 31 1002.9
20260509193108 69 278 10.4 18.2 0.00 0.00 0.00 31 1002.7
20260509191612 69 251 8.7 20.0 0.00 0.00 0.00 32 1002.6
20260509190112 69 274 6.1 13.9 0.00 0.00 0.00 35 1002.4
20260509184555 70 277 6.1 15.6 0.00 0.00 0.00 33 1002.2
20260509183054 69 285 3.5 15.6 0.00 0.00 0.00 35 1002.0
20260509181555 69 297 3.5 12.2 0.00 0.00 0.00 33 1002.0
20260509180054 68 262 7.8 12.2 0.00 0.00 0.00 34 1001.9
20260509174554 68 269 7.8 13.0 0.00 0.00 0.00 33 1001.9
20260509173104 68 252 6.1 12.2 0.00 0.00 0.00 33 1002.1
20260509171606 67 315 7.0 17.4 0.00 0.00 0.00 34 1002.2
20260509170055 66 285 9.6 21.7 0.00 0.00 0.00 34 1002.3
20260509164556 64 253 7.0 12.2 0.00 0.00 0.00 37 1002.5
20260509163059 63 276 3.5 11.3 0.00 0.00 0.00 38 1002.7
20260509161553 62 287 4.3 9.6 0.00 0.00 0.00 38 1002.8
20260509160054 63 292 2.6 9.6 0.00 0.00 0.00 38 1003.1
20260509154552 62 276 2.6 6.1 0.00 0.00 0.00 37 1003.1
20260509153049 63 250 5.2 12.2 0.00 0.00 0.00 37 1003.0
20260509151558 63 249 4.3 7.8 0.00 0.00 0.00 42 1002.9
20260509150054 61 285 2.6 7.8 0.00 0.00 0.00 45 1002.5
20260509144553 61 273 3.5 6.1 0.00 0.00 0.00 47 1002.1
20260509143049 61 285 3.5 5.2 0.00 0.00 0.00 49 1002.0
20260509141554 60 271 2.6 5.2 0.00 0.00 0.00 53 1002.2
20260509140054 60 277 2.6 5.2 0.00 0.00 0.00 53 1002.0
20260509134601 60 257 2.6 7.8 0.00 0.00 0.00 54 1001.8
20260509133053 59 270 5.2 8.7 0.00 0.00 0.00 55 1001.9
20260509131609 58 281 4.3 8.7 0.00 0.00 0.00 60 1002.0
20260509130104 58 280 5.2 11.3 0.00 0.00 0.00 61 1001.8
20260509124551 58 269 1.7 7.8 0.00 0.00 0.00 66 1001.6
20260509123101 57 240 2.6 7.0 0.00 0.00 0.00 69 1001.6
20260509121552 56 229 2.6 7.0 0.00 0.00 0.00 75 1001.6
20260509120051 55 285 3.5 6.1 0.00 0.00 0.00 78 1001.7
20260509114608 54 285 3.5 6.1 0.00 0.00 0.00 80 1001.5
20260509113105 53 253 3.5 5.2 0.00 0.00 0.00 82 1001.4